Time,TemperatureF,DewpointF,PressureIn,WindDirection,WindDirectionDegrees,WindSpeedMPH,WindSpeedGustMPH,Humidity,HourlyPrecipIn,Conditions,Clouds,dailyrainin,SoftwareType,DateUTC
2013-07-06 00:00:00,66.1,66.1,30.14,SSE,167,0.0,2.0,100,0.00,,SKC,0.74,VWS V14.01,2013-07-06 04:00:00,
2013-07-06 00:01:00,66.1,66.1,30.14,SSE,168,0.0,2.0,100,0.00,,SKC,0.74,VWS V14.01,2013-07-06 04:01:00,
2013-07-06 00:06:00,66.1,66.1,30.14,SSE,167,0.0,0.0,100,0.00,,SKC,0.00,VWS V14.01,2013-07-06 04:06:00,
2013-07-06 00:11:00,66.3,66.3,30.14,SSE,167,0.0,0.0,100,0.00,,SKC,0.00,VWS V14.01,2013-07-06 04:11:00,
2013-07-06 00:16:00,66.3,66.3,30.14,SSE,168,0.0,0.0,100,0.00,,SKC,0.00,VWS V14.01,2013-07-06 04:16:00,
2013-07-06 00:21:00,66.0,66.0,30.14,SSE,167,0.0,0.0,100,0.00,,SKC,0.00,VWS V14.01,2013-07-06 04:21:00,
2013-07-06 00:26:00,66.0,66.0,30.14,SSE,167,0.0,0.0,100,0.00,,SKC,0.00,VWS V14.01,2013-07-06 04:26:00,
2013-07-06 00:31:00,66.3,66.3,30.14,SSE,167,0.0,0.0,100,0.00,,SKC,0.00,VWS V14.01,2013-07-06 04:31:00,
2013-07-06 00:36:00,66.4,66.4,30.14,SSE,167,0.0,0.0,100,0.00,,SKC,0.00,VWS V14.01,2013-07-06 04:36:00,
2013-07-06 00:41:00,66.4,66.4,30.14,SSE,167,0.0,0.0,100,0.00,,SKC,0.00,VWS V14.01,2013-07-06 04:41:00,
2013-07-06 00:46:00,66.4,66.4,30.14,SSE,167,0.0,0.0,100,0.00,,SKC,0.00,VWS V14.01,2013-07-06 04:46:00,
2013-07-06 00:51:00,66.4,66.4,30.14,SSE,167,0.0,0.0,100,0.00,,SKC,0.00,VWS V14.01,2013-07-06 04:51:00,
2013-07-06 00:56:00,66.3,66.3,30.14,SSE,167,0.0,0.0,100,0.00,,SKC,0.00,VWS V14.01,2013-07-06 04:56:00,
2013-07-06 01:01:00,66.1,66.1,30.14,SSE,168,0.0,0.0,100,0.00,,SKC,0.00,VWS V14.01,2013-07-06 05:01:00,
2013-07-06 01:06:00,66.1,66.1,30.14,SSE,167,0.0,0.0,100,0.00,,SKC,0.00,VWS V14.01,2013-07-06 05:06:00,
2013-07-06 01:11:00,66.1,66.1,30.14,SSE,167,0.0,0.0,100,0.00,,SKC,0.00,VWS V14.01,2013-07-06 05:11:00,
2013-07-06 01:16:00,66.1,66.1,30.13,SSE,167,0.0,0.0,100,0.00,,SKC,0.00,VWS V14.01,2013-07-06 05:16:00,
2013-07-06 01:21:00,66.1,66.1,30.13,SSE,168,0.0,0.0,100,0.00,,SKC,0.00,VWS V14.01,2013-07-06 05:21:00,
2013-07-06 01:26:00,66.3,66.3,30.13,SSE,168,0.0,0.0,100,0.00,,SKC,0.00,VWS V14.01,2013-07-06 05:26:00,
2013-07-06 01:31:00,66.3,66.3,30.13,SSE,167,0.0,0.0,100,0.00,,SKC,0.00,VWS V14.01,2013-07-06 05:31:00,
2013-07-06 01:36:00,66.4,66.4,30.13,SSE,167,0.0,0.0,100,0.00,,SKC,0.00,VWS V14.01,2013-07-06 05:36:00,
2013-07-06 01:41:00,66.3,66.3,30.13,SSE,167,0.0,0.0,100,0.00,,SKC,0.00,VWS V14.01,2013-07-06 05:41:00,
2013-07-06 01:46:00,66.3,66.3,30.12,SSE,167,0.0,0.0,100,0.00,,SKC,0.00,VWS V14.01,2013-07-06 05:46:00,
2013-07-06 01:51:00,66.4,66.4,30.12,SSE,167,0.0,0.0,100,0.00,,SKC,0.00,VWS V14.01,2013-07-06 05:51:00,
2013-07-06 01:56:00,66.4,66.4,30.12,SSE,167,0.0,0.0,100,0.00,,SKC,0.00,VWS V14.01,2013-07-06 05:56:00,
2013-07-06 02:01:00,66.4,66.4,30.12,SSE,167,0.0,0.0,100,0.00,,SKC,0.00,VWS V14.01,2013-07-06 06:01:00,
2013-07-06 02:06:00,66.6,66.6,30.12,SSE,167,0.0,0.0,100,0.00,,SKC,0.00,VWS V14.01,2013-07-06 06:06:00,
2013-07-06 02:11:00,66.6,66.6,30.12,SSE,167,0.0,0.0,100,0.00,,SKC,0.00,VWS V14.01,2013-07-06 06:11:00,
2013-07-06 02:16:00,66.6,66.6,30.12,SSE,167,0.0,0.0,100,0.00,,SKC,0.00,VWS V14.01,2013-07-06 06:16:00,
2013-07-06 02:21:00,66.6,66.6,30.12,SSE,167,0.0,0.0,100,0.00,,SKC,0.00,VWS V14.01,2013-07-06 06:21:00,
2013-07-06 02:26:00,66.6,66.6,30.12,SSE,168,0.0,0.0,100,0.00,,SKC,0.00,VWS V14.01,2013-07-06 06:26:00,
2013-07-06 02:31:00,66.6,66.6,30.12,SSE,167,0.0,0.0,100,0.00,,SKC,0.00,VWS V14.01,2013-07-06 06:31:00,
2013-07-06 02:36:00,66.6,66.6,30.12,SSE,167,0.0,0.0,100,0.00,,SKC,0.00,VWS V14.01,2013-07-06 06:36:00,
2013-07-06 02:41:00,66.6,66.6,30.12,SSE,167,0.0,0.0,100,0.00,,SKC,0.00,VWS V14.01,2013-07-06 06:41:00,
2013-07-06 02:46:00,66.4,66.4,30.12,SSE,167,0.0,0.0,100,0.00,,SKC,0.00,VWS V14.01,2013-07-06 06:46:00,
2013-07-06 02:51:00,66.4,66.4,30.12,SSE,167,0.0,0.0,100,0.00,,SKC,0.00,VWS V14.01,2013-07-06 06:51:00,
2013-07-06 02:56:00,66.4,66.4,30.12,SSE,167,0.0,0.0,100,0.00,,SKC,0.00,VWS V14.01,2013-07-06 06:56:00,
2013-07-06 03:01:00,66.4,66.4,30.12,SSE,167,0.0,0.0,100,0.00,,SKC,0.00,VWS V14.01,2013-07-06 07:01:00,
2013-07-06 03:06:00,66.4,66.4,30.12,SSE,167,0.0,0.0,100,0.00,,SKC,0.00,VWS V14.01,2013-07-06 07:06:00,
2013-07-06 03:11:00,66.6,66.6,30.12,SSE,167,0.0,0.0,100,0.00,,SKC,0.00,VWS V14.01,2013-07-06 07:11:00,
2013-07-06 03:16:00,66.6,66.6,30.11,SSE,167,0.0,0.0,100,0.00,,SKC,0.00,VWS V14.01,2013-07-06 07:16:00,
2013-07-06 03:21:00,66.6,66.6,30.11,SSE,167,0.0,0.0,100,0.00,,SKC,0.00,VWS V14.01,2013-07-06 07:21:00,
2013-07-06 03:26:00,66.6,66.6,30.11,SSE,168,0.0,0.0,100,0.00,,SKC,0.00,VWS V14.01,2013-07-06 07:26:00,
2013-07-06 03:31:00,66.8,66.8,30.10,SSE,167,0.0,0.0,100,0.00,,SKC,0.00,VWS V14.01,2013-07-06 07:31:00,
2013-07-06 03:36:00,66.8,66.8,30.10,SSE,167,0.0,0.0,100,0.00,,SKC,0.00,VWS V14.01,2013-07-06 07:36:00,
2013-07-06 03:41:00,66.8,66.8,30.10,SSE,168,0.0,0.0,100,0.00,,SKC,0.00,VWS V14.01,2013-07-06 07:41:00,
2013-07-06 03:46:00,66.8,66.8,30.11,SSE,167,0.0,0.0,100,0.00,,SKC,0.00,VWS V14.01,2013-07-06 07:46:00,
2013-07-06 03:51:00,66.8,66.8,30.11,SSE,167,0.0,0.0,100,0.00,,SKC,0.00,VWS V14.01,2013-07-06 07:51:00,
2013-07-06 03:56:00,66.8,66.8,30.11,SSE,168,0.0,0.0,100,0.00,,SKC,0.00,VWS V14.01,2013-07-06 07:56:00,
2013-07-06 04:01:00,66.8,66.8,30.10,SSE,167,0.0,0.0,100,0.00,,SKC,0.00,VWS V14.01,2013-07-06 08:01:00,
2013-07-06 04:06:00,66.6,66.6,30.10,SSE,167,0.0,0.0,100,0.00,,SKC,0.00,VWS V14.01,2013-07-06 08:06:00,
2013-07-06 04:11:00,66.6,66.6,30.10,SSE,167,0.0,0.0,100,0.00,,SKC,0.00,VWS V14.01,2013-07-06 08:11:00,
2013-07-06 04:16:00,66.6,66.6,30.10,SSE,168,0.0,0.0,100,0.00,,SKC,0.00,VWS V14.01,2013-07-06 08:16:00,
2013-07-06 04:21:00,66.6,66.6,30.10,SSE,167,0.0,0.0,100,0.00,,SKC,0.00,VWS V14.01,2013-07-06 08:21:00,
2013-07-06 04:26:00,66.6,66.6,30.10,SSE,168,0.0,0.0,100,0.00,,SKC,0.00,VWS V14.01,2013-07-06 08:26:00,
2013-07-06 04:31:00,66.6,66.6,30.10,SSE,168,0.0,0.0,100,0.00,,SKC,0.00,VWS V14.01,2013-07-06 08:31:00,
2013-07-06 04:36:00,66.6,66.6,30.10,SSE,168,0.0,0.0,100,0.00,,SKC,0.00,VWS V14.01,2013-07-06 08:36:00,
2013-07-06 04:41:00,66.6,66.6,30.10,SSE,167,0.0,0.0,100,0.00,,SKC,0.00,VWS V14.01,2013-07-06 08:41:00,
2013-07-06 04:46:00,66.6,66.6,30.10,SSE,168,0.0,0.0,100,0.00,,SKC,0.00,VWS V14.01,2013-07-06 08:46:00,
2013-07-06 04:51:00,66.6,66.6,30.10,SSE,168,0.0,0.0,100,0.00,,SKC,0.00,VWS V14.01,2013-07-06 08:51:00,
2013-07-06 04:56:00,66.6,66.6,30.10,SSE,167,0.0,0.0,100,0.00,,SKC,0.00,VWS V14.01,2013-07-06 08:56:00,
2013-07-06 05:01:00,66.6,66.6,30.10,SSE,167,0.0,0.0,100,0.00,,SKC,0.00,VWS V14.01,2013-07-06 09:01:00,
2013-07-06 05:06:00,66.8,66.8,30.10,SSE,167,0.0,0.0,100,0.00,,SKC,0.00,VWS V14.01,2013-07-06 09:06:00,
2013-07-06 05:11:00,66.8,66.8,30.10,SSE,168,0.0,0.0,100,0.00,,SKC,0.00,VWS V14.01,2013-07-06 09:11:00,
2013-07-06 05:16:00,66.9,66.9,30.12,SSE,167,0.0,0.0,100,0.00,,SKC,0.00,VWS V14.01,2013-07-06 09:16:00,
2013-07-06 05:21:00,67.1,67.1,30.12,SSE,167,0.0,0.0,100,0.00,,SKC,0.00,VWS V14.01,2013-07-06 09:21:00,
2013-07-06 05:26:00,67.1,67.1,30.12,SSE,168,0.0,0.0,100,0.00,,SKC,0.00,VWS V14.01,2013-07-06 09:26:00,
2013-07-06 05:31:00,67.3,67.3,30.13,SSE,168,0.0,0.0,100,0.00,,SKC,0.00,VWS V14.01,2013-07-06 09:31:00,
2013-07-06 05:36:00,67.3,67.3,30.13,SSE,168,0.0,0.0,100,0.00,,SKC,0.00,VWS V14.01,2013-07-06 09:36:00,
2013-07-06 05:41:00,67.3,67.3,30.13,SSE,167,0.0,0.0,100,0.00,,SKC,0.00,VWS V14.01,2013-07-06 09:41:00,
2013-07-06 05:46:00,67.3,67.3,30.13,SSE,168,0.0,0.0,100,0.00,,SKC,0.00,VWS V14.01,2013-07-06 09:46:00,
2013-07-06 05:51:00,67.3,67.3,30.13,SSE,167,0.0,0.0,100,0.00,,SKC,0.00,VWS V14.01,2013-07-06 09:51:00,
2013-07-06 05:56:00,67.3,67.3,30.13,SSE,167,0.0,0.0,100,0.00,,SKC,0.00,VWS V14.01,2013-07-06 09:56:00,
2013-07-06 06:01:00,67.3,67.3,30.13,SSE,167,0.0,0.0,100,0.00,,SKC,0.00,VWS V14.01,2013-07-06 10:01:00,
2013-07-06 06:06:00,67.3,67.3,30.13,SSE,167,0.0,0.0,100,0.00,,SKC,0.00,VWS V14.01,2013-07-06 10:06:00,
2013-07-06 06:11:00,67.3,67.3,30.13,SSE,167,0.0,0.0,100,0.00,,SKC,0.00,VWS V14.01,2013-07-06 10:11:00,
2013-07-06 06:16:00,67.3,67.3,30.13,SSE,168,0.0,0.0,100,0.00,,SKC,0.00,VWS V14.01,2013-07-06 10:16:00,
2013-07-06 06:21:00,67.3,67.3,30.13,SSE,167,0.0,0.0,100,0.00,,SKC,0.00,VWS V14.01,2013-07-06 10:21:00,
2013-07-06 06:26:00,67.3,67.3,30.13,SSE,167,0.0,0.0,100,0.00,,SKC,0.00,VWS V14.01,2013-07-06 10:26:00,
2013-07-06 06:31:00,67.3,67.3,30.13,SSE,167,0.0,0.0,100,0.00,,SKC,0.00,VWS V14.01,2013-07-06 10:31:00,
2013-07-06 06:36:00,67.1,67.1,30.13,SSE,167,0.0,0.0,100,0.00,,SKC,0.00,VWS V14.01,2013-07-06 10:36:00,
2013-07-06 06:41:00,67.1,67.1,30.13,SSE,167,0.0,0.0,100,0.00,,SKC,0.00,VWS V14.01,2013-07-06 10:41:00,
2013-07-06 06:46:00,67.3,67.3,30.13,SSE,167,0.0,0.0,100,0.00,,SKC,0.00,VWS V14.01,2013-07-06 10:46:00,
2013-07-06 06:51:00,67.3,67.3,30.13,SSE,167,0.0,0.0,100,0.00,,SKC,0.00,VWS V14.01,2013-07-06 10:51:00,
2013-07-06 06:56:00,67.4,67.4,30.13,SSE,167,0.0,0.0,100,0.00,,SKC,0.00,VWS V14.01,2013-07-06 10:56:00,
2013-07-06 07:01:00,67.4,67.4,30.13,SSE,168,0.0,0.0,100,0.00,,SKC,0.00,VWS V14.01,2013-07-06 11:01:00,
2013-07-06 07:06:00,67.4,67.4,30.13,SSE,168,0.0,0.0,100,0.00,,SKC,0.00,VWS V14.01,2013-07-06 11:06:00,
2013-07-06 07:11:00,67.4,67.4,30.13,SSE,167,0.0,0.0,100,0.00,,SKC,0.00,VWS V14.01,2013-07-06 11:11:00,
2013-07-06 07:16:00,67.6,67.6,30.14,SSE,167,0.0,0.0,100,0.00,,SKC,0.00,VWS V14.01,2013-07-06 11:16:00,
2013-07-06 07:21:00,67.8,67.8,30.14,SSE,167,0.0,0.0,100,0.00,,SKC,0.00,VWS V14.01,2013-07-06 11:21:00,
2013-07-06 07:26:00,67.9,67.9,30.14,SSE,168,0.0,0.0,100,0.00,,SKC,0.00,VWS V14.01,2013-07-06 11:26:00,
2013-07-06 07:31:00,68.1,68.1,30.14,SSE,167,0.0,0.0,100,0.00,,SKC,0.00,VWS V14.01,2013-07-06 11:31:00,
2013-07-06 07:36:00,68.3,68.3,30.14,SSE,168,0.0,0.0,100,0.00,,SKC,0.00,VWS V14.01,2013-07-06 11:36:00,
2013-07-06 07:41:00,68.4,68.4,30.14,SSE,167,0.0,0.0,100,0.00,,SKC,0.00,VWS V14.01,2013-07-06 11:41:00,
2013-07-06 07:46:00,68.4,68.4,30.14,SSE,168,0.0,1.0,100,0.00,,SKC,0.00,VWS V14.01,2013-07-06 11:46:00,
2013-07-06 07:51:00,68.8,68.8,30.14,SSE,168,0.0,0.0,100,0.00,,SKC,0.00,VWS V14.01,2013-07-06 11:51:00,
2013-07-06 07:56:00,68.9,68.9,30.14,SSE,167,0.0,0.0,100,0.00,,SKC,0.00,VWS V14.01,2013-07-06 11:56:00,
2013-07-06 08:01:00,69.1,69.1,30.14,SSE,168,0.0,1.0,100,0.00,,SKC,0.00,VWS V14.01,2013-07-06 12:01:00,
2013-07-06 08:06:00,69.3,69.3,30.14,SSE,163,0.0,0.0,100,0.00,,SKC,0.00,VWS V14.01,2013-07-06 12:06:00,
2013-07-06 08:11:00,69.1,69.1,30.14,South,176,0.0,3.0,100,0.00,,SKC,0.00,VWS V14.01,2013-07-06 12:11:00,
2013-07-06 08:16:00,69.1,69.1,30.15,SSE,167,0.0,1.0,100,0.00,,SKC,0.00,VWS V14.01,2013-07-06 12:16:00,
2013-07-06 08:21:00,69.1,69.1,30.15,SSE,167,0.0,2.0,100,0.00,,SKC,0.00,VWS V14.01,2013-07-06 12:21:00,
2013-07-06 08:26:00,69.4,69.4,30.15,SSE,167,0.0,1.0,100,0.00,,SKC,0.00,VWS V14.01,2013-07-06 12:26:00,
2013-07-06 08:31:00,69.4,69.4,30.15,SSE,167,0.0,2.0,100,0.00,,SKC,0.00,VWS V14.01,2013-07-06 12:31:00,
2013-07-06 08:36:00,69.4,69.4,30.15,South,182,0.0,3.0,100,0.00,,SKC,0.00,VWS V14.01,2013-07-06 12:36:00,
2013-07-06 08:41:00,69.6,69.6,30.15,SSE,160,0.0,3.0,100,0.00,,SKC,0.00,VWS V14.01,2013-07-06 12:41:00,
2013-07-06 08:46:00,69.4,69.4,30.15,SSE,160,0.0,0.0,100,0.00,,SKC,0.00,VWS V14.01,2013-07-06 12:46:00,
2013-07-06 08:51:00,69.6,69.6,30.15,SSE,160,0.0,1.0,100,0.00,,SKC,0.00,VWS V14.01,2013-07-06 12:51:00,
2013-07-06 08:56:00,70.1,70.1,30.15,SSE,152,2.0,3.0,100,0.00,,SKC,0.00,VWS V14.01,2013-07-06 12:56:00,
2013-07-06 09:01:00,69.9,69.9,30.16,South,185,0.0,3.0,100,0.00,,SKC,0.00,VWS V14.01,2013-07-06 13:01:00,
2013-07-06 09:06:00,69.8,69.8,30.16,South,169,0.0,4.0,100,0.00,,SKC,0.00,VWS V14.01,2013-07-06 13:06:00,
2013-07-06 09:11:00,70.1,70.1,30.16,South,169,0.0,2.0,100,0.00,,SKC,0.00,VWS V14.01,2013-07-06 13:11:00,
2013-07-06 09:16:00,70.4,70.4,30.16,SSE,168,0.0,1.0,100,0.00,,SKC,0.00,VWS V14.01,2013-07-06 13:16:00,
2013-07-06 09:21:00,70.4,70.4,30.16,SSE,167,0.0,0.0,100,0.00,,SKC,0.00,VWS V14.01,2013-07-06 13:21:00,
2013-07-06 09:26:00,70.3,70.3,30.16,SSE,167,0.0,2.0,100,0.00,,SKC,0.00,VWS V14.01,2013-07-06 13:26:00,
2013-07-06 09:31:00,70.4,70.4,30.15,SSE,167,0.0,0.0,100,0.00,,SKC,0.00,VWS V14.01,2013-07-06 13:31:00,
2013-07-06 09:36:00,70.3,70.3,30.15,SSE,160,0.0,4.0,100,0.00,,SKC,0.00,VWS V14.01,2013-07-06 13:36:00,
2013-07-06 09:41:00,70.6,70.6,30.15,SSE,160,0.0,3.0,100,0.00,,SKC,0.00,VWS V14.01,2013-07-06 13:41:00,
2013-07-06 09:46:00,70.8,70.8,30.15,SSE,163,0.0,2.0,100,0.00,,SKC,0.00,VWS V14.01,2013-07-06 13:46:00,
2013-07-06 09:51:00,70.9,70.9,30.15,SSE,162,0.0,2.0,100,0.00,,SKC,0.00,VWS V14.01,2013-07-06 13:51:00,
2013-07-06 09:56:00,71.3,71.3,30.15,SSE,162,2.0,2.0,100,0.00,,SKC,0.00,VWS V14.01,2013-07-06 13:56:00,
2013-07-06 10:01:00,72.3,72.0,30.15,ESE,122,3.0,5.0,99,0.00,,SKC,0.00,VWS V14.01,2013-07-06 14:01:00,
2013-07-06 10:06:00,73.3,72.1,30.15,SE,140,2.0,3.0,96,0.00,,SKC,0.00,VWS V14.01,2013-07-06 14:06:00,
2013-07-06 10:11:00,73.7,71.2,30.15,SE,136,2.0,5.0,92,0.00,,SKC,0.00,VWS V14.01,2013-07-06 14:11:00,
2013-07-06 10:16:00,73.9,70.1,30.14,SE,136,0.0,3.0,88,0.00,,SKC,0.00,VWS V14.01,2013-07-06 14:16:00,
2013-07-06 10:21:00,73.7,69.3,30.14,SE,136,2.0,3.0,86,0.00,,SKC,0.00,VWS V14.01,2013-07-06 14:21:00,
2013-07-06 10:26:00,74.2,69.4,30.14,SE,136,0.0,3.0,85,0.00,,SKC,0.00,VWS V14.01,2013-07-06 14:26:00,
2013-07-06 10:31:00,74.4,69.6,30.14,SE,136,0.0,3.0,85,0.00,,SKC,0.00,VWS V14.01,2013-07-06 14:31:00,
2013-07-06 10:36:00,74.2,69.1,30.14,SE,134,0.0,3.0,84,0.00,,SKC,0.00,VWS V14.01,2013-07-06 14:36:00,
2013-07-06 10:41:00,74.9,70.4,30.14,SE,134,0.0,1.0,86,0.00,,SKC,0.00,VWS V14.01,2013-07-06 14:41:00,
2013-07-06 10:46:00,75.4,69.2,30.14,SE,134,0.0,3.0,81,0.00,,SKC,0.00,VWS V14.01,2013-07-06 14:46:00,
2013-07-06 10:51:00,76.3,69.7,30.14,SE,129,4.0,4.0,80,0.00,,SKC,0.00,VWS V14.01,2013-07-06 14:51:00,
2013-07-06 10:56:00,77.0,71.4,30.14,SE,135,3.0,5.0,83,0.00,,SKC,0.00,VWS V14.01,2013-07-06 14:56:00,
2013-07-06 11:01:00,76.8,69.8,30.14,SE,136,0.0,2.0,79,0.00,,SKC,0.00,VWS V14.01,2013-07-06 15:01:00,
2013-07-06 11:06:00,76.0,68.3,30.14,SE,124,0.0,4.0,77,0.00,,SKC,0.00,VWS V14.01,2013-07-06 15:06:00,
2013-07-06 11:11:00,76.0,69.4,30.14,SE,124,0.0,1.0,80,0.00,,SKC,0.00,VWS V14.01,2013-07-06 15:11:00,
2013-07-06 11:16:00,76.1,69.5,30.14,ESE,123,0.0,4.0,80,0.00,,SKC,0.00,VWS V14.01,2013-07-06 15:16:00,
2013-07-06 11:21:00,76.8,68.7,30.14,ESE,123,0.0,3.0,76,0.00,,SKC,0.00,VWS V14.01,2013-07-06 15:21:00,
2013-07-06 11:26:00,77.7,71.0,30.14,SE,124,0.0,4.0,80,0.00,,SKC,0.00,VWS V14.01,2013-07-06 15:26:00,
2013-07-06 11:31:00,78.1,69.5,30.14,SE,132,2.0,5.0,75,0.00,,SKC,0.00,VWS V14.01,2013-07-06 15:31:00,
2013-07-06 11:36:00,77.6,68.7,30.14,ESE,110,0.0,4.0,74,0.00,,SKC,0.00,VWS V14.01,2013-07-06 15:36:00,
2013-07-06 11:41:00,77.6,69.4,30.14,ESE,110,0.0,2.0,76,0.00,,SKC,0.00,VWS V14.01,2013-07-06 15:41:00,
2013-07-06 11:46:00,77.9,69.3,30.13,ESE,112,2.0,3.0,75,0.00,,SKC,0.00,VWS V14.01,2013-07-06 15:46:00,
2013-07-06 11:51:00,78.1,69.1,30.13,ESE,112,0.0,2.0,74,0.00,,SKC,0.00,VWS V14.01,2013-07-06 15:51:00,
2013-07-06 11:56:00,78.6,68.8,30.13,ESE,112,0.0,0.0,72,0.00,,SKC,0.00,VWS V14.01,2013-07-06 15:56:00,
2013-07-06 12:01:00,78.5,69.9,30.13,ESE,113,0.0,3.0,75,0.00,,SKC,0.00,VWS V14.01,2013-07-06 16:01:00,
2013-07-06 12:06:00,78.8,69.4,30.13,ESE,113,0.0,2.0,73,0.00,,SKC,0.00,VWS V14.01,2013-07-06 16:06:00,
2013-07-06 12:11:00,78.3,69.7,30.13,ESE,113,0.0,2.0,75,0.00,,SKC,0.00,VWS V14.01,2013-07-06 16:11:00,
2013-07-06 12:16:00,78.6,69.2,30.13,ESE,114,1.0,6.0,73,0.00,,SKC,0.00,VWS V14.01,2013-07-06 16:16:00,
2013-07-06 12:21:00,78.8,68.6,30.13,ESE,113,0.0,5.0,71,0.00,,SKC,0.00,VWS V14.01,2013-07-06 16:21:00,
2013-07-06 12:26:00,79.0,70.4,30.13,ESE,113,0.0,1.0,75,0.00,,SKC,0.00,VWS V14.01,2013-07-06 16:26:00,
2013-07-06 12:31:00,78.8,69.0,30.13,ESE,112,0.0,4.0,72,0.00,,SKC,0.00,VWS V14.01,2013-07-06 16:31:00,
2013-07-06 12:36:00,78.8,69.8,30.13,ESE,110,0.0,1.0,74,0.00,,SKC,0.00,VWS V14.01,2013-07-06 16:36:00,
2013-07-06 12:41:00,78.8,69.0,30.13,ESE,110,0.0,6.0,72,0.00,,SKC,0.00,VWS V14.01,2013-07-06 16:41:00,
2013-07-06 12:46:00,78.8,70.2,30.12,ESE,110,0.0,0.0,75,0.00,,SKC,0.00,VWS V14.01,2013-07-06 16:46:00,
2013-07-06 12:51:00,79.4,69.6,30.12,South,172,0.0,2.0,72,0.00,,SKC,0.00,VWS V14.01,2013-07-06 16:51:00,
2013-07-06 12:56:00,79.8,70.0,30.12,SE,144,0.0,2.0,72,0.00,,SKC,0.00,VWS V14.01,2013-07-06 16:56:00,
2013-07-06 13:02:00,79.8,69.6,30.12,SE,146,0.0,1.0,71,0.00,,SKC,0.00,VWS V14.01,2013-07-06 17:02:00,
2013-07-06 13:07:00,80.3,69.2,30.12,SE,137,0.0,2.0,69,0.00,,SKC,0.00,VWS V14.01,2013-07-06 17:07:00,
2013-07-06 13:12:00,80.3,71.3,30.12,SE,134,0.0,2.0,74,0.00,,SKC,0.00,VWS V14.01,2013-07-06 17:12:00,
2013-07-06 13:17:00,79.9,69.2,30.11,SE,134,0.0,1.0,70,0.00,,SKC,0.00,VWS V14.01,2013-07-06 17:17:00,
2013-07-06 13:22:00,79.8,70.0,30.11,SE,131,0.0,5.0,72,0.00,,SKC,0.00,VWS V14.01,2013-07-06 17:22:00,
2013-07-06 13:27:00,80.3,71.3,30.11,SE,129,0.0,2.0,74,0.00,,SKC,0.00,VWS V14.01,2013-07-06 17:27:00,
2013-07-06 13:32:00,80.7,68.7,30.11,SE,131,0.0,2.0,67,0.00,,SKC,0.00,VWS V14.01,2013-07-06 17:32:00,
2013-07-06 13:38:00,80.9,68.9,30.11,SE,129,1.0,4.0,67,0.00,,SKC,0.00,VWS V14.01,2013-07-06 17:38:00,
2013-07-06 13:43:00,80.3,69.2,30.11,SE,129,0.0,0.0,69,0.00,,SKC,0.00,VWS V14.01,2013-07-06 17:43:00,
2013-07-06 13:48:00,79.6,69.0,30.11,SE,129,0.0,3.0,70,0.00,,SKC,0.00,VWS V14.01,2013-07-06 17:48:00,
2013-07-06 13:53:00,79.4,68.8,30.11,SE,129,1.0,1.0,70,0.00,,SKC,0.00,VWS V14.01,2013-07-06 17:53:00,
2013-07-06 13:58:00,79.0,67.6,30.11,SE,128,0.0,4.0,68,0.00,,SKC,0.00,VWS V14.01,2013-07-06 17:58:00,
2013-07-06 14:03:00,78.6,68.0,30.10,SE,125,0.0,4.0,70,0.00,,SKC,0.00,VWS V14.01,2013-07-06 18:03:00,
2013-07-06 14:08:00,79.0,68.8,30.10,SE,125,0.0,2.0,71,0.00,,SKC,0.00,VWS V14.01,2013-07-06 18:08:00,
2013-07-06 14:13:00,79.6,68.5,30.10,SE,127,0.0,4.0,69,0.00,,SKC,0.00,VWS V14.01,2013-07-06 18:13:00,
2013-07-06 14:19:00,80.7,68.7,30.09,SE,139,4.0,5.0,67,0.00,,SKC,0.00,VWS V14.01,2013-07-06 18:19:00,
2013-07-06 14:24:00,80.7,70.0,30.09,SE,132,0.0,2.0,70,0.00,,SKC,0.00,VWS V14.01,2013-07-06 18:24:00,
2013-07-06 14:29:00,81.1,68.7,30.09,SE,132,0.0,3.0,66,0.00,,SKC,0.00,VWS V14.01,2013-07-06 18:29:00,
2013-07-06 14:34:00,81.4,71.1,30.09,SE,132,0.0,2.0,71,0.00,,SKC,0.00,VWS V14.01,2013-07-06 18:34:00,
2013-07-06 14:39:00,80.5,69.0,30.09,ESE,122,3.0,7.0,68,0.00,,SKC,0.00,VWS V14.01,2013-07-06 18:39:00,
2013-07-06 14:44:00,80.3,68.8,30.09,SE,124,1.0,4.0,68,0.00,,SKC,0.00,VWS V14.01,2013-07-06 18:44:00,
2013-07-06 14:49:00,80.7,69.6,30.09,ESE,114,0.0,7.0,69,0.00,,SKC,0.00,VWS V14.01,2013-07-06 18:49:00,
2013-07-06 14:55:00,81.2,70.5,30.09,ESE,117,3.0,4.0,70,0.00,,SKC,0.00,VWS V14.01,2013-07-06 18:55:00,
2013-07-06 15:00:00,81.2,70.1,30.09,ESE,117,1.0,1.0,69,0.00,,SKC,0.00,VWS V14.01,2013-07-06 19:00:00,
2013-07-06 15:05:00,81.4,69.4,30.09,ESE,117,3.0,3.0,67,0.00,,SKC,0.00,VWS V14.01,2013-07-06 19:05:00,
2013-07-06 15:10:00,81.2,68.8,30.09,SE,142,1.0,5.0,66,0.00,,SKC,0.00,VWS V14.01,2013-07-06 19:10:00,
2013-07-06 15:15:00,81.2,68.8,30.09,SE,141,0.0,4.0,66,0.00,,SKC,0.00,VWS V14.01,2013-07-06 19:15:00,
2013-07-06 15:20:00,81.8,71.1,30.08,SE,141,0.0,3.0,70,0.00,,SKC,0.00,VWS V14.01,2013-07-06 19:20:00,
2013-07-06 15:25:00,81.8,70.6,30.08,ESE,106,0.0,5.0,69,0.00,,SKC,0.00,VWS V14.01,2013-07-06 19:25:00,
2013-07-06 15:30:00,81.8,69.8,30.07,SE,131,0.0,4.0,67,0.00,,SKC,0.00,VWS V14.01,2013-07-06 19:30:00,
2013-07-06 15:35:00,82.2,69.7,30.07,ESE,111,0.0,6.0,66,0.00,,SKC,0.00,VWS V14.01,2013-07-06 19:35:00,
2013-07-06 15:41:00,81.2,68.3,30.07,SE,137,2.0,15.0,65,0.00,,SKC,0.00,VWS V14.01,2013-07-06 19:41:00,
2013-07-06 15:46:00,80.5,69.0,30.06,SE,138,0.0,2.0,68,0.00,,SKC,0.00,VWS V14.01,2013-07-06 19:46:00,
2013-07-06 15:51:00,79.9,68.0,30.06,ESE,112,1.0,11.0,67,0.00,,SKC,0.00,VWS V14.01,2013-07-06 19:51:00,
2013-07-06 15:56:00,79.4,69.6,30.06,SE,124,4.0,6.0,72,0.00,,SKC,0.00,VWS V14.01,2013-07-06 19:56:00,
2013-07-06 16:01:00,78.3,69.3,30.07,SE,127,0.0,6.0,74,0.00,,SKC,0.00,VWS V14.01,2013-07-06 20:01:00,
2013-07-06 16:06:00,78.6,69.2,30.07,SE,124,4.0,5.0,73,0.00,,SKC,0.00,VWS V14.01,2013-07-06 20:06:00,
2013-07-06 16:11:00,79.2,70.2,30.07,ESE,120,0.0,2.0,74,0.00,,SKC,0.00,VWS V14.01,2013-07-06 20:11:00,
2013-07-06 16:16:00,79.4,69.2,30.06,ESE,115,0.0,7.0,71,0.00,,SKC,0.00,VWS V14.01,2013-07-06 20:16:00,
2013-07-06 16:21:00,79.2,68.6,30.06,SE,130,3.0,4.0,70,0.00,,SKC,0.00,VWS V14.01,2013-07-06 20:21:00,
2013-07-06 16:27:00,78.5,68.3,30.06,ESE,103,1.0,3.0,71,0.00,,SKC,0.00,VWS V14.01,2013-07-06 20:27:00,
2013-07-06 16:31:00,78.3,68.9,30.06,ESE,110,2.0,4.0,73,0.00,,SKC,0.00,VWS V14.01,2013-07-06 20:31:00,
2013-07-06 16:37:00,78.1,68.8,30.06,ESE,116,0.0,3.0,73,0.00,,SKC,0.00,VWS V14.01,2013-07-06 20:37:00,
2013-07-06 16:42:00,78.1,68.3,30.06,ESE,118,1.0,4.0,72,0.00,,SKC,0.00,VWS V14.01,2013-07-06 20:42:00,
2013-07-06 16:47:00,78.3,68.9,30.05,ESE,115,2.0,5.0,73,0.00,,SKC,0.00,VWS V14.01,2013-07-06 20:47:00,
2013-07-06 16:52:00,78.3,69.7,30.05,SE,139,7.0,7.0,75,0.00,,SKC,0.00,VWS V14.01,2013-07-06 20:52:00,
2013-07-06 16:58:00,78.1,69.1,30.05,SE,137,0.0,3.0,74,0.00,,SKC,0.00,VWS V14.01,2013-07-06 20:58:00,
2013-07-06 17:03:00,78.1,68.8,30.05,SE,133,2.0,4.0,73,0.00,,SKC,0.00,VWS V14.01,2013-07-06 21:03:00,
2013-07-06 17:08:00,77.9,67.8,30.05,SSE,149,2.0,5.0,71,0.00,,SKC,0.00,VWS V14.01,2013-07-06 21:08:00,
2013-07-06 17:13:00,78.1,68.3,30.05,SSE,148,0.0,1.0,72,0.00,,SKC,0.00,VWS V14.01,2013-07-06 21:13:00,
2013-07-06 17:18:00,78.6,68.8,30.05,SSE,148,0.0,0.0,72,0.00,,SKC,0.00,VWS V14.01,2013-07-06 21:18:00,
2013-07-06 17:23:00,78.8,69.0,30.05,SSE,148,0.0,0.0,72,0.00,,SKC,0.00,VWS V14.01,2013-07-06 21:23:00,
2013-07-06 17:28:00,79.4,69.2,30.05,SSE,148,3.0,3.0,71,0.00,,SKC,0.00,VWS V14.01,2013-07-06 21:28:00,
2013-07-06 17:33:00,79.9,68.4,30.05,SE,143,1.0,2.0,68,0.00,,SKC,0.00,VWS V14.01,2013-07-06 21:33:00,
2013-07-06 17:38:00,79.9,68.0,30.05,SE,143,2.0,4.0,67,0.00,,SKC,0.00,VWS V14.01,2013-07-06 21:38:00,
2013-07-06 17:43:00,80.1,68.2,30.05,SE,138,0.0,3.0,67,0.00,,SKC,0.00,VWS V14.01,2013-07-06 21:43:00,
2013-07-06 17:49:00,79.8,68.3,30.05,SE,131,0.0,4.0,68,0.00,,SKC,0.00,VWS V14.01,2013-07-06 21:49:00,
2013-07-06 17:54:00,79.8,69.2,30.05,SE,132,2.0,4.0,70,0.00,,SKC,0.00,VWS V14.01,2013-07-06 21:54:00,
2013-07-06 17:59:00,79.6,69.4,30.05,SE,133,0.0,3.0,71,0.00,,SKC,0.00,VWS V14.01,2013-07-06 21:59:00,
2013-07-06 18:04:00,79.4,69.6,30.05,SE,129,0.0,6.0,72,0.00,,SKC,0.00,VWS V14.01,2013-07-06 22:04:00,
2013-07-06 18:09:00,79.6,69.8,30.05,SE,134,2.0,4.0,72,0.00,,SKC,0.00,VWS V14.01,2013-07-06 22:09:00,
2013-07-06 18:14:00,78.6,69.2,30.05,SE,129,3.0,10.0,73,0.00,,SKC,0.00,VWS V14.01,2013-07-06 22:14:00,
2013-07-06 18:19:00,77.9,69.3,30.03,SE,129,13.0,13.0,75,0.00,,SKC,0.00,VWS V14.01,2013-07-06 22:19:00,
2013-07-06 18:24:00,77.0,69.2,30.03,SE,126,0.0,10.0,77,0.00,,SKC,0.00,VWS V14.01,2013-07-06 22:24:00,
2013-07-06 18:30:00,76.7,69.7,30.04,SE,127,0.0,4.0,79,0.00,,SKC,0.00,VWS V14.01,2013-07-06 22:30:00,
2013-07-06 18:35:00,76.3,70.1,30.04,ESE,122,3.0,4.0,81,0.00,,SKC,0.00,VWS V14.01,2013-07-06 22:35:00,
2013-07-06 18:40:00,76.1,69.5,30.04,ESE,119,4.0,6.0,80,0.00,,SKC,0.00,VWS V14.01,2013-07-06 22:40:00,
2013-07-06 18:45:00,76.3,69.7,30.05,ESE,119,0.0,2.0,80,0.00,,SKC,0.00,VWS V14.01,2013-07-06 22:45:00,
2013-07-06 18:51:00,76.5,69.5,30.05,ESE,119,0.0,0.0,79,0.00,,SKC,0.00,VWS V14.01,2013-07-06 22:51:00,
2013-07-06 18:56:00,76.7,69.7,30.05,ESE,119,0.0,0.0,79,0.00,,SKC,0.00,VWS V14.01,2013-07-06 22:56:00,
2013-07-06 19:01:00,76.7,69.7,30.05,ESE,119,0.0,0.0,79,0.00,,SKC,0.00,VWS V14.01,2013-07-06 23:01:00,
2013-07-06 19:06:00,77.0,69.2,30.05,ESE,119,3.0,4.0,77,0.00,,SKC,0.00,VWS V14.01,2013-07-06 23:06:00,
2013-07-06 19:12:00,77.0,69.2,30.05,ESE,119,2.0,2.0,77,0.00,,SKC,0.00,VWS V14.01,2013-07-06 23:12:00,
2013-07-06 19:17:00,77.0,68.5,30.05,ESE,122,0.0,2.0,75,0.00,,SKC,0.00,VWS V14.01,2013-07-06 23:17:00,
2013-07-06 19:22:00,76.8,67.5,30.05,SE,126,2.0,6.0,73,0.00,,SKC,0.00,VWS V14.01,2013-07-06 23:22:00,
2013-07-06 19:27:00,76.3,67.8,30.05,East,101,0.0,3.0,75,0.00,,SKC,0.00,VWS V14.01,2013-07-06 23:27:00,
2013-07-06 19:32:00,76.0,67.1,30.06,ESE,103,0.0,0.0,74,0.00,,SKC,0.00,VWS V14.01,2013-07-06 23:32:00,
2013-07-06 19:37:00,75.6,67.1,30.06,ESE,105,0.0,5.0,75,0.00,,SKC,0.00,VWS V14.01,2013-07-06 23:37:00,
2013-07-06 19:43:00,75.4,66.9,30.06,ESE,105,0.0,2.0,75,0.00,,SKC,0.00,VWS V14.01,2013-07-06 23:43:00,
2013-07-06 19:48:00,75.3,66.8,30.07,ESE,105,0.0,1.0,75,0.00,,SKC,0.00,VWS V14.01,2013-07-06 23:48:00,
2013-07-06 19:53:00,75.1,67.4,30.07,ESE,105,1.0,1.0,77,0.00,,SKC,0.00,VWS V14.01,2013-07-06 23:53:00,
2013-07-06 19:58:00,74.7,66.6,30.07,ESE,105,0.0,0.0,76,0.00,,SKC,0.00,VWS V14.01,2013-07-06 23:58:00,
2013-07-06 20:03:00,74.7,66.6,30.07,ESE,105,0.0,0.0,76,0.00,,SKC,0.00,VWS V14.01,2013-07-07 00:03:00,
2013-07-06 20:08:00,74.7,67.0,30.07,ESE,105,0.0,0.0,77,0.00,,SKC,0.00,VWS V14.01,2013-07-07 00:08:00,
2013-07-06 20:13:00,74.6,67.3,30.07,ESE,105,0.0,2.0,78,0.00,,SKC,0.00,VWS V14.01,2013-07-07 00:13:00,
2013-07-06 20:19:00,74.6,67.7,30.08,ESE,105,0.0,0.0,79,0.00,,SKC,0.00,VWS V14.01,2013-07-07 00:19:00,
2013-07-06 20:24:00,74.2,67.6,30.08,ESE,105,0.0,0.0,80,0.00,,SKC,0.00,VWS V14.01,2013-07-07 00:24:00,
2013-07-06 20:29:00,74.0,67.4,30.08,ESE,105,2.0,2.0,80,0.01,,SKC,0.01,VWS V14.01,2013-07-07 00:29:00,
2013-07-06 20:34:00,73.7,68.9,30.10,SW,224,0.0,6.0,85,0.04,,SKC,0.04,VWS V14.01,2013-07-07 00:34:00,
2013-07-06 20:39:00,72.8,68.7,30.10,SW,227,1.0,4.0,87,0.07,,SKC,0.07,VWS V14.01,2013-07-07 00:39:00,
2013-07-06 20:44:00,72.1,68.3,30.10,WSW,255,0.0,7.0,88,0.11,,SKC,0.11,VWS V14.01,2013-07-07 00:44:00,
2013-07-06 20:50:00,71.5,68.4,30.10,WNW,286,0.0,9.0,90,0.29,,SKC,0.29,VWS V14.01,2013-07-07 00:50:00,
2013-07-06 20:55:00,70.8,68.4,30.10,WNW,286,3.0,4.0,92,0.30,,SKC,0.30,VWS V14.01,2013-07-07 00:55:00,
2013-07-06 21:01:00,70.6,68.5,30.10,WNW,285,0.0,3.0,93,0.31,,SKC,0.31,VWS V14.01,2013-07-07 01:01:00,
2013-07-06 21:06:00,70.4,68.6,30.10,WNW,285,0.0,0.0,94,0.31,,SKC,0.31,VWS V14.01,2013-07-07 01:06:00,
2013-07-06 21:11:00,70.3,68.8,30.10,WNW,285,0.0,0.0,95,0.31,,SKC,0.31,VWS V14.01,2013-07-07 01:11:00,
2013-07-06 21:16:00,70.3,68.8,30.10,WNW,285,0.0,3.0,95,0.31,,SKC,0.31,VWS V14.01,2013-07-07 01:16:00,
2013-07-06 21:21:00,70.1,68.9,30.10,WNW,285,0.0,0.0,96,0.31,,SKC,0.31,VWS V14.01,2013-07-07 01:21:00,
2013-07-06 21:26:00,70.1,68.9,30.10,WNW,285,0.0,0.0,96,0.31,,SKC,0.31,VWS V14.01,2013-07-07 01:26:00,
2013-07-06 21:32:00,69.9,68.7,30.10,WNW,285,0.0,0.0,96,0.30,,SKC,0.31,VWS V14.01,2013-07-07 01:32:00,
2013-07-06 21:37:00,69.9,68.7,30.10,WNW,285,0.0,0.0,96,0.27,,SKC,0.32,VWS V14.01,2013-07-07 01:37:00,
2013-07-06 21:42:00,69.9,68.7,30.10,WNW,285,0.0,0.0,96,0.24,,SKC,0.32,VWS V14.01,2013-07-07 01:42:00,
2013-07-06 21:47:00,69.9,69.0,30.09,WNW,285,0.0,0.0,97,0.18,,SKC,0.32,VWS V14.01,2013-07-07 01:47:00,
2013-07-06 21:52:00,69.9,69.0,30.09,WNW,285,0.0,0.0,97,0.02,,SKC,0.32,VWS V14.01,2013-07-07 01:52:00,
2013-07-06 21:57:00,69.9,69.0,30.09,WNW,285,0.0,0.0,97,0.02,,SKC,0.32,VWS V14.01,2013-07-07 01:57:00,
2013-07-06 22:03:00,69.8,69.2,30.10,WNW,285,0.0,0.0,98,0.01,,SKC,0.32,VWS V14.01,2013-07-07 02:03:00,
2013-07-06 22:08:00,69.6,68.7,30.10,WNW,285,0.0,0.0,97,0.01,,SKC,0.32,VWS V14.01,2013-07-07 02:08:00,
2013-07-06 22:13:00,69.6,69.0,30.10,WNW,285,0.0,0.0,98,0.01,,SKC,0.32,VWS V14.01,2013-07-07 02:13:00,
2013-07-06 22:18:00,69.6,69.0,30.09,WNW,285,0.0,0.0,98,0.01,,SKC,0.32,VWS V14.01,2013-07-07 02:18:00,
2013-07-06 22:23:00,69.6,69.0,30.09,WNW,285,0.0,0.0,98,0.01,,SKC,0.32,VWS V14.01,2013-07-07 02:23:00,
2013-07-06 22:28:00,69.6,69.3,30.09,WNW,285,0.0,0.0,99,0.01,,SKC,0.32,VWS V14.01,2013-07-07 02:28:00,
2013-07-06 22:34:00,69.6,69.3,30.10,WNW,285,0.0,0.0,99,0.01,,SKC,0.32,VWS V14.01,2013-07-07 02:34:00,
2013-07-06 22:39:00,69.6,69.3,30.10,WNW,285,0.0,0.0,99,0.00,,SKC,0.32,VWS V14.01,2013-07-07 02:39:00,
2013-07-06 22:44:00,69.6,69.3,30.10,WNW,285,0.0,0.0,99,0.00,,SKC,0.32,VWS V14.01,2013-07-07 02:44:00,
2013-07-06 22:49:00,69.6,69.3,30.11,WNW,285,0.0,1.0,99,0.00,,SKC,0.32,VWS V14.01,2013-07-07 02:49:00,
2013-07-06 22:55:00,69.6,69.3,30.11,WNW,285,0.0,2.0,99,0.01,,SKC,0.33,VWS V14.01,2013-07-07 02:55:00,
2013-07-06 23:00:00,69.6,69.3,30.10,WNW,285,0.0,0.0,99,0.15,,SKC,0.47,VWS V14.01,2013-07-07 03:00:00,
2013-07-06 23:05:00,69.6,69.3,30.10,WNW,285,0.0,0.0,99,0.26,,SKC,0.58,VWS V14.01,2013-07-07 03:05:00,
2013-07-06 23:10:00,69.6,69.3,30.10,WNW,285,0.0,0.0,99,0.29,,SKC,0.61,VWS V14.01,2013-07-07 03:10:00,
2013-07-06 23:15:00,69.6,69.3,30.09,WNW,285,0.0,0.0,99,0.30,,SKC,0.62,VWS V14.01,2013-07-07 03:15:00,
2013-07-06 23:21:00,69.6,69.3,30.09,WNW,285,0.0,0.0,99,0.30,,SKC,0.62,VWS V14.01,2013-07-07 03:21:00,
2013-07-06 23:26:00,69.6,69.3,30.09,WNW,285,0.0,0.0,99,0.30,,SKC,0.62,VWS V14.01,2013-07-07 03:26:00,
2013-07-06 23:31:00,69.6,69.3,30.09,WNW,285,0.0,0.0,99,0.30,,SKC,0.62,VWS V14.01,2013-07-07 03:31:00,
2013-07-06 23:37:00,69.8,69.8,30.09,WNW,285,0.0,0.0,100,0.30,,SKC,0.62,VWS V14.01,2013-07-07 03:37:00,
2013-07-06 23:42:00,69.8,69.8,30.09,WNW,285,0.0,0.0,100,0.30,,SKC,0.62,VWS V14.01,2013-07-07 03:42:00,
2013-07-06 23:47:00,69.8,69.8,30.10,WNW,285,0.0,0.0,100,0.30,,SKC,0.62,VWS V14.01,2013-07-07 03:47:00,
2013-07-06 23:52:00,69.8,69.8,30.10,WNW,285,0.0,0.0,100,0.30,,SKC,0.62,VWS V14.01,2013-07-07 03:52:00,
2013-07-06 23:57:00,69.8,69.8,30.10,WNW,285,0.0,0.0,100,0.28,,SKC,0.62,VWS V14.01,2013-07-07 03:57:00,